Regional Weather Roundup
Issued by NWS Charleston, SC

Current Version | Previous Version | Graphics & Text | Print | Product List | Glossary On
Versions: 1 2 3 4 5 6 7 8 9 10 11 12 13 14 15 16 17 18 19 20 21 22 23 24 25 26 27 28 29 30 31 32 33 34 35 36 37 38 39 40 41 42 43 44 45 46 47 48 49 50
000 ASUS42 KCHS 290012 RWRCHS REGIONAL WEATHER ROUNDUP NATIONAL WEATHER SERVICE CHARLESTON SC 800 PM EDT FRI AUG 28 2015 NOTE: "FAIR" INDICATES FEW OR NO CLOUDS BELOW 12,000 FEET WITH NO SIGNIFICANT WEATHER AND/OR OBSTRUCTIONS TO VISIBILITY. NOT ALL STATIONS ARE QUALITY CONTROLLED BY THE NATIONAL WEATHER SERVICE. USE DATA WITH CAUTION...ESPECIALLY DEWPOINT OBSERVATIONS. SCZ027-030-031-034>040-042>050-290100- ...SOUTHEAST SOUTH CAROLINA... CITY SKY/WX TMP DP RH WIND PRES REMARKS N CHARLESTON CLOUDY 79 71 76 E7 30.10R 6HR MIN TEMP: 78; 6HR MAX TEMP: 88; 6HR PCP: 0.08; WATERFRONT PRK N/A 81 74 79 E14 30.06S MOUNT PLEASANT FAIR 79 72 78 E6 30.10R JOHNS ISLAND FAIR 81 72 74 NE10 30.09R PINOPOLIS N/A 82 73 74 VRB2 30.03R MONCKS CORNER FAIR 81 70 69 CALM 30.10R SUMMERVILLE FAIR 79 72 78 E3 30.11R BEAUFORT MCAS LGT RAIN 77 74 90 NE5 30.09S 6HR MIN TEMP: 73; 6HR MAX TEMP: 87; 6HR PCP: 1.13; BEAUFORT ARPT RAIN 77 75 94 E7 30.08S HILTON HEAD IS MOCLDY 79 73 83 NE8 30.08F WALTERBORO CLOUDY 79 72 78 E5 30.11R ALLENDALE FAIR 81 72 74 CALM 30.08S ...SOUTHERN MIDLANDS AND PEE DEE... CITY SKY/WX TMP DP RH WIND PRES REMARKS GEORGETOWN NOT AVBL KINGSTREE NOT AVBL ORANGEBURG MOCLDY 80 61 52 E6 30.11R 6HR MIN TEMP: 80; 6HR MAX TEMP: 87; BARNWELL FAIR 81 70 69 E6 30.10R AIKEN FAIR 79 61 53 E3 30.15R MANNING FAIR 77 61 57 CALM 30.11R COLUMBIA PTCLDY 81 61 50 SE7 30.11R 6HR MIN TEMP: 81; 6HR MAX TEMP: 91; SUMTER MOCLDY 78 60 52 NE7 30.09S 6HR MIN TEMP: 78; 6HR MAX TEMP: 88; 6HR PCP: TRACE; FLORENCE PTCLDY 77 61 57 E6 30.11F 6HR MIN TEMP: 77; 6HR MAX TEMP: 86; MYRTLE BEACH PTCLDY 79 64 61 NE8 30.13R N MYRTLE BEACH PTCLDY 76 69 79 CALM 30.11R 6HR MIN TEMP: 76; 6HR MAX TEMP: 86; $$ GAZ063-065-086>088-099>101-113>116-118-119-134>141-150-290100- ...SOUTHEAST GEORGIA... CITY SKY/WX TMP DP RH WIND PRES REMARKS SAVANNAH ARPT CLOUDY 74 70 87 E10 30.09R 6HR MIN TEMP: 74; 6HR MAX TEMP: 86; 6HR PCP: 0.03; HUNTER AAF CLOUDY 75 74 97 N3 30.06R 6HR MIN TEMP: 75; 6HR MAX TEMP: 85; 6HR PCP: 0.02; FORT STEWART MOCLDY 76 69 79 CALM 30.06R 6HR MIN TEMP: 76; 6HR MAX TEMP: 83; STATESBORO CLOUDY 79 76 91 CALM 30.08S SYLVANIA CLOUDY 79 77 95 CALM 30.10R CLAXTON NOT AVBL ...CSRA...CENTRAL AND FAR SOUTHEAST GEORGIA... CITY SKY/WX TMP DP RH WIND PRES REMARKS THOMSON CLOUDY 81 72 74 CALM 30.15R AUGUSTA-BUSH MOCLDY 75 72 90 CALM 30.09R 6HR MIN TEMP: 75; 6HR MAX TEMP: 88; AUGUSTA-DANIEL MOCLDY 82 67 60 SE3 30.11R SWAINSBORO FAIR 81 73 78 CALM 30.09S VIDALIA CLOUDY 79 72 78 CALM 30.09R EASTMAN FAIR 78 78 100 CALM 30.11R HAZLEHURST FAIR 80 74 83 CALM 30.07R ALMA CLOUDY 78 73 84 CALM 30.08R 6HR MIN TEMP: 69; 6HR MAX TEMP: 87; 6HR PCP: 1.78; WAYCROSS CLOUDY 81 78 90 E5 30.07S JESUP FAIR 81 77 89 E5 30.08R BAXLEY FAIR 81 73 78 E5 30.08R BRUNSWICK CLOUDY 77 75 94 NE3 30.08R SAINT SIMONS CLOUDY 81 73 76 NE8 30.07R 6HR MIN TEMP: 72; 6HR MAX TEMP: 81; 6HR PCP: 0.42; $$ SCZ027-028-034-036>038-045-046-048>050-GAZ119-141-290100- ...LAKE AND SUPPLEMENTAL COASTAL OBSERVATIONS... STATION/POSITION TIME TEMP WIND PRES WAVE SWELL AIR SEA DIR/SP/G HT/PER HT/PER/DIR (UTC) (F) (DEG/KT/KT) (MB) (FT/S) (FT/S/D) UPR LAKE MARION NOT AVBL WINYAH BAY NOT AVBL LAKE MURRAY 2300 84 100/ 10/ 13 1018.3S ACE BASIN NERRS NOT AVBL FORT PULASKI NOT AVBL SAPELO ISLAND 2300 81 50/ 5 1018.0R $$ ANZ835-935-AMZ111-154-330-350-352-354-370-450-454-472-290100- ...C-MAN AND BUOY OBSERVATIONS... STATION/POSITION TIME TEMP WIND PRES WAVE SWELL AIR SEA DIR/SP/G HT/PER HT/PER/DIR (UTC) (F) (DEG/KT/KT) (MB) (FT/S) (FT/S/D) BUOY 41004 2350 81 84 50/ 19/ 23 1017.8R 5/ 6 2/10 BUOY 41008 2350 82 85 70/ 12/ 14 1018.0R 3/ 9 2/120/ 9 FOLLY BEACH CMAN 2300 81 70/ 19/ 20 1018.8F CAPERS NEARSHORE 2308 81 80/ 17/ 23 1018.9F FRIPP NEARSHORE 2300 82 70/ 16/ 21 1018.2R STATION/POSITION TIME TEMP WIND PRES WAVE SWELL AIR SEA DIR/SP/G HT/PER HT/PER/DIR (UTC) (F) (DEG/KT/KT) (MB) (FT/S) (FT/S/D) 5E ST. MARYS GA 2321 86 N/A 3/ 8 2/100/11 FRYING PAN BUOY 2350 80 81 60/ 17/ 21 1019.1R 6/ 6 2/150/11 BUOY 41025 2350 79 83 30/ 17/ 21 1019.7R 4/11 3/ 80/11 CAPE LOOKOUT NC 2300 78 50/ 18/ 20 1019.6S BUOY 41002 2350 82 84 280/ 8/ 12 1018.3R 3/11 3/ 80/11 BUOY 41010 2320 82 85 CALM / 2 1016.8F ST AUGUSTINE FL 0000 83 87 110/ 10/ 12 1018.4R $$

USA.gov is the U.S. government's official web portal to all federal, state and local government web resources and services.